EWG5E LIPZ-EDDH

Flight info

Callsign EWG5E
Flight time 1h 31m
Altitude 38000
Route ROKIB Z468 GIKEB DCT BRENO M726 KEMES DCT ABGUS DCT DIRBO T902 RARUP RARUP6A
Aircraft A319/M-SDE3FGHIRWY/LB1

Departure

Time 2026-02-18 13:34
Airport Venice Marco Polo Airport (LIPZ)

Arrival

Time 2026-02-18 15:05
Airport Hamburg Helmut Schmidt Airport (EDDH)
Time Latitude Longitude Altitude Speed Heading
2026-02-18 12:41 45.50613 12.34203 14 ft 0 kts 269°
2026-02-18 13:25 45.50613 12.34205 14 ft 1 kts 269°
2026-02-18 13:25 45.50614 12.34228 14 ft 3 kts 269°
2026-02-18 13:26 45.50614 12.34257 14 ft 3 kts 268°
2026-02-18 13:26 45.50615 12.34286 14 ft 3 kts 266°
2026-02-18 13:26 45.50616 12.34315 14 ft 3 kts 266°
2026-02-18 13:26 45.50617 12.34333 14 ft 0 kts 266°
2026-02-18 13:28 45.50616 12.34332 14 ft 0 kts 255°
2026-02-18 13:29 45.50606 12.34334 14 ft 3 kts 178°
2026-02-18 13:29 45.50564 12.34337 15 ft 8 kts 176°
2026-02-18 13:29 45.50500 12.34341 16 ft 10 kts 178°
2026-02-18 13:30 45.50418 12.34347 19 ft 12 kts 174°
2026-02-18 13:30 45.50331 12.34353 20 ft 14 kts 178°
2026-02-18 13:30 45.50240 12.34283 17 ft 18 kts 223°
2026-02-18 13:30 45.50172 12.34199 17 ft 14 kts 219°
2026-02-18 13:31 45.50091 12.34092 14 ft 18 kts 223°
2026-02-18 13:31 45.49987 12.33958 13 ft 21 kts 222°
2026-02-18 13:31 45.49865 12.33832 13 ft 22 kts 186°
2026-02-18 13:31 45.49781 12.33813 13 ft 13 kts 192°
2026-02-18 13:32 45.49691 12.33779 17 ft 14 kts 211°
2026-02-18 13:32 45.49619 12.33694 16 ft 13 kts 219°
2026-02-18 13:32 45.49545 12.33730 15 ft 14 kts 134°
2026-02-18 13:32 45.49482 12.33833 13 ft 6 kts 123°
2026-02-18 13:33 45.49720 12.34173 9 ft 73 kts 42°
2026-02-18 13:33 45.50250 12.34852 13 ft 130 kts 42°
2026-02-18 13:33 45.51037 12.35853 227 ft 158 kts 43°
2026-02-18 13:34 45.51815 12.36933 915 ft 159 kts 46°
2026-02-18 13:34 45.52592 12.38088 1528 ft 170 kts 47°
2026-02-18 13:34 45.53472 12.39376 1977 ft 192 kts 47°
2026-02-18 13:34 45.54443 12.40766 2644 ft 201 kts 46°
2026-02-18 13:35 45.55621 12.41909 3346 ft 212 kts 16°
2026-02-18 13:35 45.57080 12.41685 3997 ft 218 kts 331°
2026-02-18 13:35 45.58273 12.40391 4833 ft 216 kts 315°
2026-02-18 13:35 45.59232 12.38726 5663 ft 213 kts 295°
2026-02-18 13:36 45.59708 12.36757 6384 ft 219 kts 279°
2026-02-18 13:36 45.59840 12.34439 6808 ft 244 kts 272°
2026-02-18 13:36 45.59963 12.31933 7534 ft 258 kts 274°
2026-02-18 13:36 45.60115 12.29355 8544 ft 261 kts 274°
2026-02-18 13:37 45.60442 12.24166 10431 ft 271 kts 275°
2026-02-18 13:37 45.60612 12.21410 10795 ft 292 kts 275°
2026-02-18 13:37 45.60792 12.18466 11485 ft 301 kts 276°
2026-02-18 13:38 45.60977 12.15466 12308 ft 305 kts 276°
2026-02-18 13:38 45.61158 12.12433 13140 ft 308 kts 277°
2026-02-18 13:38 45.61339 12.09362 13937 ft 312 kts 277°
2026-02-18 13:38 45.61522 12.06249 14665 ft 315 kts 277°
2026-02-18 13:39 45.61706 12.03114 15406 ft 317 kts 277°
2026-02-18 13:39 45.61890 11.99958 16149 ft 320 kts 278°
2026-02-18 13:39 45.62319 11.96851 16873 ft 319 kts 290°
2026-02-18 13:39 45.63277 11.93981 17609 ft 320 kts 303°
2026-02-18 13:40 45.64710 11.91518 18326 ft 324 kts 315°
2026-02-18 13:40 45.66520 11.89565 18961 ft 328 kts 323°
2026-02-18 13:40 45.68397 11.87747 19593 ft 330 kts 323°
2026-02-18 13:40 45.70330 11.85873 20239 ft 333 kts 322°
2026-02-18 13:41 45.74344 11.82512 21425 ft 342 kts 329°
2026-02-18 13:41 45.76508 11.81026 22005 ft 346 kts 329°
2026-02-18 13:41 45.78686 11.79527 22636 ft 348 kts 329°
2026-02-18 13:42 45.80148 11.78519 23039 ft 350 kts 329°
2026-02-18 13:42 45.82346 11.76998 23602 ft 352 kts 328°
2026-02-18 13:42 45.84556 11.75467 24089 ft 354 kts 328°
2026-02-18 13:42 45.87517 11.73406 24739 ft 357 kts 328°
2026-02-18 13:43 45.89028 11.72353 25101 ft 358 kts 328°
2026-02-18 13:43 45.91275 11.70793 25603 ft 360 kts 328°
2026-02-18 13:43 45.93590 11.69361 26043 ft 367 kts 335°
2026-02-18 13:43 45.96099 11.68485 26521 ft 374 kts 342°
2026-02-18 13:44 45.98649 11.67761 27059 ft 375 kts 341°
2026-02-18 13:44 46.01190 11.67031 27607 ft 376 kts 341°
2026-02-18 13:44 46.03783 11.66281 28120 ft 377 kts 341°
2026-02-18 13:44 46.06336 11.65543 28541 ft 379 kts 341°
2026-02-18 13:45 46.11573 11.64018 29512 ft 383 kts 341°
2026-02-18 13:45 46.14167 11.63263 29970 ft 386 kts 341°
2026-02-18 13:45 46.16830 11.62492 30379 ft 387 kts 341°
2026-02-18 13:46 46.19484 11.61724 30712 ft 389 kts 341°
2026-02-18 13:46 46.22136 11.60938 31084 ft 390 kts 341°
2026-02-18 13:46 46.24812 11.60127 31417 ft 391 kts 340°
2026-02-18 13:46 46.27482 11.59311 31800 ft 392 kts 340°
2026-02-18 13:47 46.30149 11.58498 32269 ft 390 kts 340°
2026-02-18 13:47 46.32780 11.57702 32760 ft 388 kts 340°
2026-02-18 13:47 46.35406 11.56910 33215 ft 386 kts 340°
2026-02-18 13:47 46.38038 11.56114 33682 ft 384 kts 340°
2026-02-18 13:48 46.40651 11.55322 34278 ft 382 kts 339°
2026-02-18 13:48 46.43249 11.54530 34733 ft 380 kts 339°
2026-02-18 13:48 46.45840 11.53735 35083 ft 381 kts 339°
2026-02-18 13:48 46.48451 11.52932 35426 ft 382 kts 339°
2026-02-18 13:49 46.53659 11.51332 36087 ft 383 kts 339°
2026-02-18 13:49 46.56249 11.50539 36401 ft 384 kts 340°
2026-02-18 13:49 46.58880 11.49735 36709 ft 386 kts 340°
2026-02-18 13:50 46.61515 11.48931 37051 ft 387 kts 340°
2026-02-18 13:50 46.64155 11.48126 37296 ft 388 kts 340°
2026-02-18 13:50 46.66796 11.47321 37565 ft 389 kts 340°
2026-02-18 13:50 46.69445 11.46514 37839 ft 389 kts 339°
2026-02-18 13:51 46.72103 11.45697 37955 ft 391 kts 340°
2026-02-18 13:51 46.74781 11.44872 37976 ft 391 kts 340°
2026-02-18 13:51 46.80128 11.43215 37952 ft 391 kts 339°
2026-02-18 13:52 46.85443 11.41564 37962 ft 393 kts 340°
2026-02-18 13:52 46.90783 11.39911 37971 ft 393 kts 340°
2026-02-18 13:53 47.01798 11.38052 37949 ft 411 kts 355°
2026-02-18 13:54 47.07506 11.38640 37978 ft 410 kts 355°
2026-02-18 13:55 47.16054 11.39492 37959 ft 410 kts 354°
2026-02-18 13:55 47.21739 11.40061 37957 ft 410 kts 354°
2026-02-18 13:56 47.27398 11.40399 37954 ft 402 kts 351°
2026-02-18 13:56 47.32981 11.40344 37950 ft 400 kts 349°
2026-02-18 13:57 47.41349 11.40211 37947 ft 401 kts 350°
2026-02-18 13:57 47.46928 11.40157 37959 ft 399 kts 349°
2026-02-18 13:58 47.52459 11.40108 37946 ft 396 kts 349°
2026-02-18 13:58 47.58010 11.40036 37938 ft 396 kts 349°
2026-02-18 13:59 47.63524 11.39912 37932 ft 393 kts 347°
2026-02-18 13:59 47.68950 11.39281 37959 ft 389 kts 344°
2026-02-18 14:00 47.74321 11.38415 37957 ft 388 kts 344°
2026-02-18 14:00 47.79695 11.37598 37956 ft 388 kts 344°
2026-02-18 14:01 47.87788 11.36540 37981 ft 390 kts 346°
2026-02-18 14:02 47.93220 11.36091 37924 ft 392 kts 347°
2026-02-18 14:02 47.98669 11.35703 37922 ft 392 kts 347°
2026-02-18 14:03 48.04118 11.35264 37922 ft 392 kts 346°
2026-02-18 14:03 48.09540 11.34665 37943 ft 388 kts 343°
2026-02-18 14:04 48.14867 11.33605 37928 ft 386 kts 342°
2026-02-18 14:04 48.20200 11.32429 37921 ft 387 kts 342°
2026-02-18 14:05 48.28218 11.30823 37927 ft 389 kts 343°
2026-02-18 14:05 48.33640 11.29968 37929 ft 391 kts 344°
2026-02-18 14:06 48.39061 11.29181 37935 ft 390 kts 344°
2026-02-18 14:06 48.44469 11.28359 37943 ft 390 kts 344°
2026-02-18 14:07 48.49857 11.27506 37926 ft 390 kts 343°
2026-02-18 14:07 48.55267 11.26635 37962 ft 390 kts 344°
2026-02-18 14:08 48.60713 11.25764 37947 ft 391 kts 344°
2026-02-18 14:08 48.66128 11.24898 37947 ft 391 kts 344°
2026-02-18 14:09 48.74254 11.23602 37951 ft 392 kts 344°
2026-02-18 14:10 48.79676 11.22728 37979 ft 392 kts 344°
2026-02-18 14:10 48.84203 11.22017 37970 ft 395 kts 346°
2026-02-18 14:11 48.89747 11.21974 37966 ft 400 kts 350°
2026-02-18 14:11 48.95320 11.22009 37963 ft 400 kts 350°
2026-02-18 14:12 49.00905 11.22049 37983 ft 400 kts 350°
2026-02-18 14:12 49.06517 11.22082 37962 ft 400 kts 350°
2026-02-18 14:13 49.14838 11.22123 37956 ft 400 kts 350°
2026-02-18 14:13 49.20407 11.22147 37995 ft 400 kts 350°
2026-02-18 14:14 49.25976 11.22187 37981 ft 400 kts 351°
2026-02-18 14:14 49.31590 11.22235 37971 ft 400 kts 351°
2026-02-18 14:15 49.39901 11.22297 37963 ft 400 kts 351°
2026-02-18 14:16 49.48257 11.22367 37965 ft 400 kts 351°
2026-02-18 14:16 49.53832 11.22419 37957 ft 400 kts 351°
2026-02-18 14:17 49.62126 11.22066 37951 ft 396 kts 347°
2026-02-18 14:18 49.67636 11.21573 37979 ft 397 kts 348°
2026-02-18 14:18 49.73168 11.21135 37961 ft 397 kts 348°
2026-02-18 14:19 49.78690 11.20752 37953 ft 398 kts 348°
2026-02-18 14:19 49.84228 11.20371 37954 ft 398 kts 348°
2026-02-18 14:20 49.89767 11.19983 37988 ft 398 kts 348°
2026-02-18 14:20 49.95317 11.19581 37967 ft 398 kts 348°
2026-02-18 14:21 50.03625 11.18975 37956 ft 399 kts 348°
2026-02-18 14:21 50.09176 11.18578 37954 ft 399 kts 348°
2026-02-18 14:22 50.14727 11.18174 37975 ft 399 kts 348°
2026-02-18 14:22 50.20280 11.17778 37961 ft 400 kts 348°
2026-02-18 14:23 50.25844 11.17393 37955 ft 400 kts 348°
2026-02-18 14:23 50.31402 11.16994 37950 ft 400 kts 348°
2026-02-18 14:24 50.36967 11.16583 37972 ft 400 kts 348°
2026-02-18 14:24 50.42530 11.16172 37951 ft 401 kts 348°
2026-02-18 14:25 50.50890 11.15566 37940 ft 401 kts 348°
2026-02-18 14:26 50.56477 11.15157 37941 ft 401 kts 348°
2026-02-18 14:26 50.62057 11.14748 37944 ft 402 kts 348°
2026-02-18 14:27 50.67681 11.14338 37945 ft 402 kts 348°
2026-02-18 14:27 50.73269 11.13921 37950 ft 402 kts 348°
2026-02-18 14:28 50.78863 11.13509 37960 ft 402 kts 348°
2026-02-18 14:28 50.84419 11.13107 37980 ft 402 kts 348°
2026-02-18 14:29 50.92820 11.12487 37978 ft 403 kts 348°
2026-02-18 14:29 50.98457 11.12068 37971 ft 403 kts 348°
2026-02-18 14:30 51.04027 11.11652 37971 ft 403 kts 348°
2026-02-18 14:30 51.09632 11.11224 37983 ft 404 kts 349°
2026-02-18 14:31 51.15246 11.10805 37971 ft 404 kts 349°
2026-02-18 14:31 51.20872 11.10376 37970 ft 404 kts 349°
2026-02-18 14:32 51.26497 11.09958 37967 ft 405 kts 349°
2026-02-18 14:32 51.32118 11.09539 37998 ft 405 kts 349°
2026-02-18 14:33 51.40572 11.08898 37993 ft 406 kts 349°
2026-02-18 14:34 51.46214 11.08461 37964 ft 406 kts 349°
2026-02-18 14:34 51.51855 11.08028 37973 ft 406 kts 349°
2026-02-18 14:35 51.57544 11.07601 38017 ft 406 kts 349°
2026-02-18 14:35 51.63192 11.07167 38002 ft 406 kts 349°
2026-02-18 14:36 51.68836 11.06728 37995 ft 407 kts 349°
2026-02-18 14:36 51.74496 11.06297 37995 ft 407 kts 349°
2026-02-18 14:37 51.82971 11.05652 38012 ft 407 kts 349°
2026-02-18 14:37 51.88666 11.05112 38010 ft 405 kts 347°
2026-02-18 14:38 51.94276 11.03975 38001 ft 402 kts 344°
2026-02-18 14:38 51.99817 11.02630 38011 ft 403 kts 344°
2026-02-18 14:39 52.05360 11.01359 38035 ft 404 kts 345°
2026-02-18 14:39 52.10961 11.00159 37423 ft 410 kts 345°
2026-02-18 14:40 52.13812 10.99549 36503 ft 418 kts 345°
2026-02-18 14:40 52.16697 10.98932 35836 ft 418 kts 345°
2026-02-18 14:40 52.19593 10.98316 35118 ft 420 kts 345°
2026-02-18 14:40 52.22472 10.97707 34659 ft 414 kts 345°
2026-02-18 14:41 52.28131 10.96517 33694 ft 406 kts 345°
2026-02-18 14:41 52.30911 10.95920 33249 ft 399 kts 345°
2026-02-18 14:41 52.33640 10.95328 32773 ft 393 kts 345°
2026-02-18 14:42 52.36331 10.94739 32351 ft 387 kts 344°
2026-02-18 14:42 52.38984 10.94153 31908 ft 382 kts 344°
2026-02-18 14:42 52.41599 10.93576 31469 ft 377 kts 344°
2026-02-18 14:42 52.44180 10.93014 31037 ft 372 kts 345°
2026-02-18 14:43 52.45874 10.92651 30765 ft 369 kts 345°
2026-02-18 14:43 52.49246 10.91926 30188 ft 363 kts 344°
2026-02-18 14:43 52.51738 10.91379 29762 ft 359 kts 345°
2026-02-18 14:43 52.53394 10.91015 29465 ft 356 kts 345°
2026-02-18 14:44 52.56616 10.90309 28941 ft 349 kts 345°
2026-02-18 14:44 52.58236 10.89954 28681 ft 346 kts 345°
2026-02-18 14:44 52.60589 10.89436 28300 ft 342 kts 345°
2026-02-18 14:44 52.62933 10.88923 27932 ft 339 kts 345°
2026-02-18 14:45 52.67593 10.87893 27297 ft 340 kts 345°
2026-02-18 14:45 52.69971 10.87357 26969 ft 345 kts 345°
2026-02-18 14:45 52.72348 10.86828 26648 ft 345 kts 345°
2026-02-18 14:46 52.74723 10.86307 26324 ft 344 kts 345°
2026-02-18 14:46 52.77095 10.85790 26038 ft 342 kts 346°
2026-02-18 14:46 52.79448 10.85272 25718 ft 340 kts 345°
2026-02-18 14:46 52.81794 10.84752 25292 ft 340 kts 345°
2026-02-18 14:47 52.84132 10.84232 24792 ft 340 kts 346°
2026-02-18 14:47 52.86480 10.83734 24295 ft 340 kts 346°
2026-02-18 14:47 52.88820 10.83260 23814 ft 339 kts 346°
2026-02-18 14:47 52.91167 10.82794 23278 ft 338 kts 346°
2026-02-18 14:48 52.93495 10.82330 22702 ft 337 kts 347°
2026-02-18 14:48 52.95812 10.81864 22149 ft 335 kts 347°
2026-02-18 14:48 52.98131 10.81395 21601 ft 333 kts 347°
2026-02-18 14:48 53.00421 10.80930 21070 ft 331 kts 347°
2026-02-18 14:49 53.04964 10.80003 20019 ft 326 kts 348°
2026-02-18 14:49 53.07205 10.79549 19512 ft 324 kts 348°
2026-02-18 14:49 53.09435 10.79101 19054 ft 320 kts 349°
2026-02-18 14:50 53.11640 10.78653 18599 ft 317 kts 349°
2026-02-18 14:50 53.13802 10.78210 18145 ft 313 kts 349°
2026-02-18 14:50 53.15972 10.77760 17626 ft 310 kts 349°
2026-02-18 14:50 53.18096 10.77318 17110 ft 307 kts 349°
2026-02-18 14:51 53.20208 10.76880 16622 ft 305 kts 350°
2026-02-18 14:51 53.22309 10.76444 16131 ft 303 kts 350°
2026-02-18 14:51 53.24393 10.76013 15680 ft 301 kts 351°
2026-02-18 14:51 53.26466 10.75586 15307 ft 298 kts 351°
2026-02-18 14:52 53.28515 10.75164 14914 ft 295 kts 351°
2026-02-18 14:52 53.30543 10.74745 14532 ft 292 kts 351°
2026-02-18 14:52 53.32550 10.74327 14149 ft 290 kts 351°
2026-02-18 14:52 53.34548 10.73911 13773 ft 289 kts 351°
2026-02-18 14:53 53.38514 10.73086 12945 ft 286 kts 352°
2026-02-18 14:53 53.40515 10.72672 12530 ft 284 kts 353°
2026-02-18 14:53 53.42441 10.72074 12124 ft 283 kts 341°
2026-02-18 14:54 53.44227 10.70683 11726 ft 283 kts 335°
2026-02-18 14:54 53.45969 10.69164 11331 ft 282 kts 335°
2026-02-18 14:54 53.47700 10.67614 10943 ft 281 kts 335°
2026-02-18 14:54 53.49420 10.66038 10561 ft 280 kts 335°
2026-02-18 14:55 53.51113 10.64450 10172 ft 277 kts 335°
2026-02-18 14:55 53.52766 10.62862 9797 ft 272 kts 335°
2026-02-18 14:55 53.54381 10.61259 9386 ft 268 kts 334°
2026-02-18 14:55 53.55982 10.59674 8976 ft 267 kts 334°
2026-02-18 14:56 53.57595 10.58109 8567 ft 266 kts 334°
2026-02-18 14:56 53.59206 10.56576 8169 ft 266 kts 334°
2026-02-18 14:56 53.60820 10.55072 7762 ft 263 kts 334°
2026-02-18 14:56 53.62415 10.53614 7373 ft 259 kts 334°
2026-02-18 14:57 53.65564 10.50825 6603 ft 254 kts 334°
2026-02-18 14:57 53.67143 10.49473 6203 ft 251 kts 334°
2026-02-18 14:57 53.68689 10.48167 6044 ft 245 kts 334°
2026-02-18 14:58 53.70193 10.46898 6050 ft 245 kts 334°
2026-02-18 14:58 53.71658 10.45436 6050 ft 246 kts 319°
2026-02-18 14:58 53.72743 10.43145 5818 ft 249 kts 306°
2026-02-18 14:58 53.73687 10.40690 5494 ft 249 kts 304°
2026-02-18 14:59 53.74618 10.38226 5193 ft 248 kts 304°
2026-02-18 14:59 53.75561 10.35731 4876 ft 247 kts 304°
2026-02-18 14:59 53.76412 10.33275 4696 ft 242 kts 293°
2026-02-18 14:59 53.76618 10.30498 4550 ft 238 kts 268°
2026-02-18 15:00 53.76453 10.27750 4336 ft 234 kts 264°
2026-02-18 15:00 53.75925 10.25171 4065 ft 234 kts 238°
2026-02-18 15:00 53.74925 10.23030 3743 ft 231 kts 230°
2026-02-18 15:00 53.73911 10.20966 3429 ft 221 kts 230°
2026-02-18 15:01 53.72051 10.17165 2859 ft 200 kts 230°
2026-02-18 15:01 53.71165 10.15356 2555 ft 194 kts 230°
2026-02-18 15:01 53.70328 10.13649 2280 ft 182 kts 230°
2026-02-18 15:02 53.69550 10.12062 2030 ft 170 kts 230°
2026-02-18 15:02 53.68830 10.10596 1813 ft 158 kts 230°
2026-02-18 15:02 53.68153 10.09216 1573 ft 143 kts 230°
2026-02-18 15:02 53.67533 10.07956 1375 ft 136 kts 230°
2026-02-18 15:03 53.66356 10.05565 979 ft 132 kts 229°
2026-02-18 15:03 53.65771 10.04389 784 ft 131 kts 229°
2026-02-18 15:03 53.65199 10.03206 588 ft 130 kts 230°
2026-02-18 15:04 53.64632 10.02036 412 ft 128 kts 228°
2026-02-18 15:04 53.64055 10.00879 238 ft 127 kts 228°
2026-02-18 15:04 53.63496 9.99752 60 ft 126 kts 229°
2026-02-18 15:04 53.63023 9.98794 46 ft 71 kts 231°
2026-02-18 15:05 53.62780 9.98348 43 ft 17 kts 195°
2026-02-18 15:05 53.62699 9.98417 46 ft 9 kts 139°
2026-02-18 15:05 53.62684 9.98439 47 ft 1 kts 139°
2026-02-18 15:06 53.62665 9.98467 47 ft 9 kts 139°
2026-02-18 15:06 53.62606 9.98537 47 ft 12 kts 150°
2026-02-18 15:06 53.62523 9.98619 47 ft 15 kts 133°
2026-02-18 15:06 53.62529 9.98799 47 ft 13 kts 79°
2026-02-18 15:07 53.62546 9.98946 47 ft 14 kts 79°
2026-02-18 15:07 53.62567 9.99128 44 ft 15 kts 79°
2026-02-18 15:07 53.62584 9.99282 47 ft 15 kts 79°
2026-02-18 15:07 53.62604 9.99458 47 ft 13 kts 79°
2026-02-18 15:08 53.62620 9.99591 47 ft 12 kts 78°
2026-02-18 15:08 53.62635 9.99719 47 ft 11 kts 78°
2026-02-18 15:08 53.62674 9.99845 46 ft 16 kts 33°
2026-02-18 15:08 53.62753 9.99912 46 ft 12 kts 28°
2026-02-18 15:09 53.62866 10.00039 48 ft 12 kts 40°
2026-02-18 15:09 53.62926 10.00109 45 ft 10 kts 32°
2026-02-18 15:09 53.62980 10.00168 48 ft 9 kts 33°
2026-02-18 15:10 53.63036 10.00228 49 ft 6 kts 32°
2026-02-18 15:10 53.63064 10.00258 48 ft 5 kts 32°
2026-02-18 15:10 53.63076 10.00316 49 ft 4 kts 94°
2026-02-18 15:10 53.63074 10.00361 49 ft 1 kts 92°
2026-02-18 15:11 53.63074 10.00385 48 ft 2 kts 93°
2026-02-18 15:11 53.63073 10.00391 48 ft 0 kts 93°